Location: New Frontier Mobile Home Park
(32.8448°N, 116.9675°W)
Time: 19:31:46
(UTC+00:00)

Resurs 1-4 Rocket - Pass Details

Date: 14 July 2020
Orbit: 799 x 814 km, 98.6° (Epoch: 13 August)

Event Time Altitude Azimuth Distance (km) Brightness Sun altitude
Rises 09:50:57 0° 4° (N) 3,338 6.2 -28.8°
Reaches altitude 10° 09:53:23 10° 358° (N) 2,401 5.2 -28.6°
Enters shadow 09:57:44 41° 308° (NW) 1,154 2.8 -28.1°
